| time (UTC) | temp F | wind direction | speed MPH | gust MPH | rain 1hr in | rain 24hr in | rain mn in | humidity % | barometer mb |
| 20260507050035 | 65 | 143 | 0.0 | 2.0 | 0.00 | 0.00 | 0.00 | 73 | 1017.6 |
| 20260507044535 | 66 | 117 | 0.0 | 0.0 | 0.00 | 0.00 | 0.00 | 73 | 1017.5 |
| 20260507043027 | 67 | 214 | 0.0 | 0.0 | 0.00 | 0.00 | 0.00 | 71 | 1017.3 |
| 20260507041534 | 67 | 110 | 0.0 | 0.0 | 0.00 | 0.00 | 0.00 | 71 | 1017.1 |
| 20260507040026 | 67 | 111 | 0.0 | 0.0 | 0.00 | 0.00 | 0.00 | 70 | 1017.0 |
| 20260507034526 | 67 | 134 | 0.0 | 0.0 | 0.00 | 0.00 | 0.00 | 70 | 1017.0 |
| 20260507033028 | 68 | 134 | 0.0 | 0.0 | 0.00 | 0.00 | 0.00 | 67 | 1016.8 |
| 20260507031528 | 70 | 90 | 0.0 | 0.0 | 0.00 | 0.00 | 0.00 | 65 | 1016.7 |
| 20260507030025 | 72 | 90 | 0.0 | 0.0 | 0.00 | 0.00 | 0.00 | 62 | 1016.6 |
| 20260507024524 | 73 | 91 | 0.0 | 0.0 | 0.00 | 0.00 | 0.00 | 61 | 1016.6 |
| 20260507023022 | 73 | 90 | 0.0 | 0.0 | 0.00 | 0.00 | 0.00 | 60 | 1016.5 |
| 20260507021522 | 74 | 141 | 0.0 | 0.0 | 0.00 | 0.00 | 0.00 | 58 | 1016.5 |
| 20260507020023 | 75 | 94 | 0.0 | 0.0 | 0.00 | 0.00 | 0.00 | 57 | 1016.5 |
| 20260507014529 | 74 | 38 | 0.0 | 0.0 | 0.00 | 0.00 | 0.00 | 58 | 1016.6 |
| 20260507013024 | 75 | 348 | 0.0 | 1.0 | 0.00 | 0.00 | 0.00 | 57 | 1016.6 |
| 20260507011521 | 74 | 326 | 0.0 | 0.0 | 0.00 | 0.00 | 0.00 | 57 | 1016.6 |
| 20260507010019 | 75 | 263 | 0.0 | 1.0 | 0.00 | 0.00 | 0.00 | 57 | 1016.6 |
| 20260507004531 | 75 | 107 | 0.0 | 0.0 | 0.00 | 0.00 | 0.00 | 57 | 1016.7 |
| 20260507003014 | 74 | 271 | 0.0 | 7.0 | 0.00 | 0.00 | 0.00 | 58 | 1016.7 |
| 20260507001514 | 73 | 13 | 0.0 | 4.0 | 0.00 | 0.00 | 0.00 | 58 | 1016.7 |
| 20260507000015 | 74 | 11 | 0.0 | 2.0 | 0.00 | 0.00 | 0.00 | 58 | 1016.8 |
| 20260506234510 | 74 | 279 | 0.0 | 1.0 | 0.00 | 0.00 | 0.00 | 58 | 1016.9 |
| 20260506233009 | 74 | 98 | 0.0 | 1.0 | 0.00 | 0.00 | 0.00 | 58 | 1017.0 |
| 20260506231517 | 73 | 281 | 0.0 | 3.0 | 0.00 | 0.00 | 0.00 | 60 | 1017.2 |
| 20260506230004 | 73 | 11 | 0.0 | 3.0 | 0.00 | 0.00 | 0.00 | 59 | 1017.4 |
| 20260506224501 | 72 | 282 | 0.0 | 1.0 | 0.00 | 0.00 | 0.00 | 60 | 1017.7 |
| 20260506223100 | 73 | 319 | 0.0 | 1.0 | 0.00 | 0.00 | 0.00 | 60 | 1017.8 |
| 20260506221558 | 73 | 346 | 0.0 | 3.0 | 0.00 | 0.00 | 0.00 | 59 | 1018.1 |
| 20260506220057 | 73 | 293 | 0.0 | 1.0 | 0.00 | 0.00 | 0.00 | 59 | 1018.3 |
| 20260506214554 | 72 | 127 | 0.0 | 2.0 | 0.00 | 0.00 | 0.00 | 61 | 1018.5 |
| 20260506213113 | 72 | 321 | 0.0 | 4.0 | 0.00 | 0.00 | 0.00 | 60 | 1018.7 |
| 20260506211605 | 70 | 344 | 0.0 | 9.0 | 0.00 | 0.00 | 0.00 | 61 | 1018.9 |
| 20260506210055 | 71 | 302 | 0.0 | 1.0 | 0.00 | 0.00 | 0.00 | 61 | 1019.0 |
| 20260506204555 | 71 | 4 | 0.0 | 0.0 | 0.00 | 0.00 | 0.00 | 61 | 1019.1 |
| 20260506203048 | 70 | 54 | 0.0 | 6.0 | 0.00 | 0.00 | 0.00 | 62 | 1019.3 |
| 20260506201556 | 69 | 285 | 0.0 | 5.0 | 0.00 | 0.00 | 0.00 | 63 | 1019.5 |
| 20260506200043 | 69 | 283 | 0.0 | 3.0 | 0.00 | 0.00 | 0.00 | 61 | 1019.5 |
| 20260506194554 | 68 | 287 | 0.0 | 5.0 | 0.00 | 0.00 | 0.00 | 63 | 1019.7 |
| 20260506193047 | 68 | 308 | 0.0 | 6.0 | 0.00 | 0.00 | 0.00 | 64 | 1019.9 |
| 20260506191545 | 69 | 293 | 0.0 | 0.0 | 0.00 | 0.00 | 0.00 | 65 | 1020.1 |
| 20260506190039 | 68 | 316 | 0.0 | 5.0 | 0.00 | 0.00 | 0.00 | 66 | 1020.2 |
| 20260506184537 | 68 | 332 | 0.0 | 1.0 | 0.00 | 0.00 | 0.00 | 66 | 1020.3 |
| 20260506183047 | 67 | 285 | 0.0 | 0.0 | 0.00 | 0.00 | 0.00 | 66 | 1020.4 |
| 20260506181537 | 65 | 341 | 0.0 | 2.0 | 0.00 | 0.00 | 0.00 | 68 | 1020.5 |
| 20260506180035 | 65 | 231 | 0.0 | 1.0 | 0.00 | 0.00 | 0.00 | 70 | 1020.5 |
| 20260506174530 | 64 | 97 | 0.0 | 0.0 | 0.00 | 0.00 | 0.00 | 71 | 1020.5 |
| 20260506173029 | 63 | 352 | 0.0 | 0.0 | 0.00 | 0.00 | 0.00 | 71 | 1020.5 |
| 20260506171531 | 63 | 104 | 0.0 | 0.0 | 0.00 | 0.00 | 0.00 | 71 | 1020.5 |
| 20260506170027 | 61 | 278 | 0.0 | 1.0 | 0.00 | 0.00 | 0.00 | 73 | 1020.5 |
| 20260506164524 | 62 | 91 | 0.0 | 0.0 | 0.00 | 0.00 | 0.00 | 72 | 1020.5 |
| 20260506163021 | 61 | 107 | 0.0 | 0.0 | 0.00 | 0.00 | 0.00 | 74 | 1020.4 |
| 20260506161518 | 60 | 124 | 0.0 | 1.0 | 0.00 | 0.00 | 0.00 | 76 | 1020.4 |
| 20260506160017 | 59 | 153 | 0.0 | 0.0 | 0.00 | 0.00 | 0.00 | 77 | 1020.4 |
| 20260506154513 | 59 | 127 | 0.0 | 0.0 | 0.00 | 0.00 | 0.00 | 78 | 1020.4 |
| 20260506153012 | 58 | 106 | 0.0 | 0.0 | 0.00 | 0.00 | 0.00 | 78 | 1020.4 |
| 20260506151511 | 58 | 116 | 0.0 | 1.0 | 0.00 | 0.00 | 0.00 | 78 | 1020.4 |
| 20260506150011 | 57 | 122 | 0.0 | 0.0 | 0.00 | 0.00 | 0.00 | 80 | 1020.3 |
| 20260506144509 | 57 | 148 | 0.0 | 1.0 | 0.00 | 0.00 | 0.00 | 80 | 1020.3 |
| 20260506143017 | 57 | 117 | 0.0 | 1.0 | 0.00 | 0.00 | 0.00 | 82 | 1020.2 |
| 20260506141508 | 57 | 81 | 0.0 | 0.0 | 0.00 | 0.00 | 0.00 | 82 | 1020.0 |
| 20260506140005 | 57 | 110 | 0.0 | 1.0 | 0.00 | 0.00 | 0.00 | 82 | 1019.9 |
| 20260506134503 | 57 | 130 | 0.0 | 1.0 | 0.00 | 0.00 | 0.00 | 82 | 1019.8 |
| 20260506133001 | 57 | 136 | 0.0 | 1.0 | 0.00 | 0.00 | 0.00 | 82 | 1019.7 |
| 20260506131559 | 57 | 90 | 0.0 | 0.0 | 0.00 | 0.00 | 0.00 | 82 | 1019.6 |
| 20260506124556 | 57 | 113 | 0.0 | 0.0 | 0.00 | 0.00 | 0.00 | 82 | 1019.5 |
| 20260506123054 | 57 | 115 | 0.0 | 0.0 | 0.00 | 0.00 | 0.00 | 82 | 1019.5 |
| 20260506121557 | 57 | 137 | 0.0 | 0.0 | 0.00 | 0.00 | 0.00 | 82 | 1019.3 |
| 20260506120053 | 57 | 98 | 0.0 | 0.0 | 0.00 | 0.00 | 0.00 | 82 | 1019.2 |
| 20260506114553 | 57 | 124 | 0.0 | 0.0 | 0.00 | 0.00 | 0.00 | 82 | 1019.3 |
| 20260506113051 | 57 | 125 | 0.0 | 0.0 | 0.00 | 0.00 | 0.00 | 81 | 1019.2 |
| 20260506111548 | 57 | 136 | 0.0 | 1.0 | 0.00 | 0.00 | 0.00 | 81 | 1019.1 |
| 20260506110047 | 57 | 139 | 0.0 | 0.0 | 0.00 | 0.00 | 0.00 | 81 | 1019.0 |
| 20260506104546 | 57 | 120 | 0.0 | 1.0 | 0.00 | 0.00 | 0.00 | 80 | 1018.9 |
| 20260506103052 | 57 | 119 | 0.0 | 0.0 | 0.00 | 0.00 | 0.00 | 79 | 1018.8 |
| 20260506101543 | 57 | 128 | 0.0 | 0.0 | 0.00 | 0.00 | 0.00 | 80 | 1018.7 |
| 20260506100044 | 57 | 95 | 0.0 | 0.0 | 0.00 | 0.00 | 0.00 | 80 | 1018.6 |
| 20260506094541 | 57 | 147 | 0.0 | 0.0 | 0.00 | 0.00 | 0.00 | 79 | 1018.6 |
| 20260506093040 | 57 | 134 | 0.0 | 0.0 | 0.00 | 0.00 | 0.00 | 79 | 1018.6 |
| 20260506091540 | 57 | 113 | 0.0 | 0.0 | 0.00 | 0.00 | 0.00 | 80 | 1018.6 |
| 20260506090046 | 58 | 120 | 0.0 | 0.0 | 0.00 | 0.00 | 0.00 | 80 | 1018.6 |
| 20260506084545 | 58 | 143 | 0.0 | 0.0 | 0.00 | 0.00 | 0.00 | 80 | 1018.6 |
| 20260506083036 | 58 | 143 | 0.0 | 0.0 | 0.00 | 0.00 | 0.00 | 80 | 1018.6 |
| 20260506081639 | 58 | 96 | 0.0 | 1.0 | 0.00 | 0.00 | 0.00 | 80 | 1018.6 |
| 20260506073028 | 59 | 108 | 0.0 | 0.0 | 0.00 | 0.07 | 0.00 | 79 | 1018.4 |
| 20260506071527 | 59 | 127 | 0.0 | 0.0 | 0.00 | 0.07 | 0.00 | 79 | 1018.2 |
| 20260506061540 | 59 | 223 | 0.0 | 0.0 | 0.00 | 0.13 | 0.07 | 78 | 1017.6 |